Location: USNO
(38.9242°N, 77.0663°W)
Time: 22:21:53
(UTC-05:00)

Vanguard 1 - Visible Passes

Search period start: 17 December 2017 00:00
Search period end: 27 December 2017 00:00
Orbit: 650 x 3834 km, 34.2° (Epoch: 16 December)

Date Brightness Start Highest point End Pass type
(mag) Time Alt. Az. Time Alt. Az. Time Alt. Az.
17 Dec 14.4 04:39:51 10° S 04:54:35 22° SE 05:09:00 10° E visible
18 Dec 14.2 04:58:08 10° S 05:15:24 29° SE 05:32:09 10° E visible
19 Dec 14.1 05:17:18 10° SSW 05:36:17 36° SE 05:54:31 10° E visible
20 Dec 14.3 03:23:55 10° SSE 03:34:02 15° SE 03:44:42 10° E visible
20 Dec 13.9 05:37:01 10° SSW 05:57:15 44° SE 06:16:26 10° E visible
21 Dec 14.1 03:40:43 10° S 03:54:34 22° SE 04:09:34 10° E visible
21 Dec 13.7 05:57:10 10° SW 06:18:21 51° SSE 06:38:05 10° E visible
22 Dec 14.0 03:59:06 10° S 04:15:10 29° SE 04:32:48 10° E visible
22 Dec 13.5 06:17:41 10° SW 06:39:34 59° SSE 06:59:35 10° E visible
23 Dec 13.8 04:18:19 10° SSW 04:35:52 37° SE 04:55:16 10° E visible
23 Dec 13.4 06:38:29 10° SW 07:00:56 65° SSE 07:20:58 10° E visible
24 Dec 14.1 02:25:45 10° SSE 02:34:23 14° SE 02:44:01 10° E visible
24 Dec 13.6 04:38:04 10° SSW 04:56:41 44° SE 05:17:18 10° E visible
25 Dec 13.9 02:42:30 10° S 02:54:43 21° SE 03:09:10 10° E visible
25 Dec 13.4 04:58:13 10° SW 05:17:39 52° SSE 05:39:05 10° E visible
26 Dec 13.7 03:00:56 10° S 03:15:07 28° SE 03:32:34 10° E visible
26 Dec 13.3 05:18:41 10° SW 05:38:48 59° SSE 06:00:41 10° E visible
